Notices

What's New in latest Release from April 7th, 2021:

- Updated Glossary, including Speed of Maximum Gust, and Total Hourly Precipitation

- Updated national and regional climate services offices contacts and prices information

- Addition of station inventory lists for 1981-2010, 1971-2000, and 1961-1990 Normals.

Please note that as of June 10, 2021 UTC dates are available for all years 2004-present, and DBA is working on populating the remaining years (2003 to 1953).

If you haven't already, please take our survey and provide feedback about our website: https://eccc.sondage-survey.ca/f/LanguageSelection.aspx?s=442ca660-fcf1-47c0-95a9-59707d6fd709

Hourly Data Report for February 17, 2004

SHERBROOKE A
QUEBEC

45°26'00.000" N
71°41'00.000" W
241.40 m
7028124
71610
YSC

Download Data

Hourly Data (February 2004)
Hourly Data Report for February 17, 2004
TIME
LST
Temp Definition
°C
Dew Point Definition
°C
Rel Hum Definition
%
Precip. Amount Definition
mm

Wind Dir Definition
10's deg

Wind Spd Definition
km/h
Visibility Definition
km
Stn Press Definition
kPa
Hmdx Definition


Wind Chill Definition


Weather Definition


00:00 -27.5 -33.7 56   9 7 15.0 100.86   -34  
01:00 -27.5 -33.9 54   11 9 15.0 100.86   -36  
02:00 -27.6 -33.8 55   10 9 15.0 100.87   -36  
03:00 -28.3 -34.5 55   8 7 15.0 100.86   -35  
04:00 -28.5 -34.6 56   10 7 15.0 100.88   -36  
05:00 -29.0 -35.1 56   6 6 15.0 100.91   -35  
06:00 -29.7 -35.9 55   5 4 15.0 100.92   -34  
07:00 -31.5 -37.8 54   8 4 15.0 100.93   -36  
08:00 -26.9 -33.2 55   9 6 24.1 100.92   -33 Mainly Clear
09:00 -22.6 -30.1 50     0 24.1 100.86     Mostly Cloudy
10:00 -17.4 -27.4 41   7 4 24.1 100.74   -21 Mostly Cloudy
11:00 -14.9 -25.5 40     0 24.1 100.71     Mostly Cloudy
12:00 -10.0 -24.1 31     0 24.1 100.58     Mostly Cloudy
13:00 -8.9 -23.2 30     0 24.1 100.41     Mostly Cloudy
14:00 -8.1 -22.6 30   34 6 24.1 100.30   -11 Mostly Cloudy
15:00 -6.9 -22.9 27   36 4 24.1 100.25   -9 Cloudy
16:00 -6.6 -22.6 27     0 24.1 100.16     Mostly Cloudy
17:00 -6.8 -21.1 31     0 24.1 100.11     Cloudy
18:00 -8.4 -18.9 42     0 15.0 100.11      
19:00 -9.3 -21.3 37   20 7 15.0 100.15   -13  
20:00 -9.4 -21.1 38   13 6 15.0 100.11   -13  
21:00 -11.4 -21.4 43     0 15.0 100.04      
22:00 -11.8 -20.7 48   10 4 15.0 99.94   -14  
23:00 -11.4 -21.1 45   14 4 15.0 99.89   -14  

Notes on Data Quality.

Legend

  • E = Estimated
  • M = Missing
  • NA = Not Available*
  • [empty] = Indicates an unobserved value
Date modified: